[[{"header":{"parameterUnit":"m.s-1","parameterCategory":1,"la1":30.2991,"la2":30.254,"lo1":-89.0895,"lo2":-89.0444,"dy":0.0017,"dx":0.0017,"nx":28,"ny":28,"refTime":"2024-04-02T03:00:00:Z","depth":0,"parameterNumber":2,"parameterNumberName":"U-component_of_WINDS"},"data":[0,0,0,0,0,0,0,0,0,0,0,0,0,0,0,0,0,0,0,0,0,0,0,0,0,0,0,0,0,0,0,0,0,0,0,0,0,0,0,0,0,0,0,0,0,0,0,0,0,0,0,0,0,0,0,0,0,0,1.0476,1.0474,0,1.031,1.0308,1.0306,1.0184,1.0183,1.0182,1.0181,1.001,1.0007,1.0003,0,0,0,0,0,0,0,0,0,0,0,0,0,1.0686,1.0683,1.0476,1.0474,1.0472,1.031,1.0308,1.0305,1.0184,1.0183,1.0182,1.018,1.0012,1.0007,1.0003,0,0,0,0,0,0,0,0,0,0,0,0,0,1.0565,1.0682,1.0476,1.0392,1.0382,1.031,1.0308,1.0305,1.0184,1.0183,1.0181,1.018,1.0013,1.0008,1.0002,1.0001,0,0,0.9986,0.9984,0,0,0,0,0,0,0,0,1.0572,1.0557,1.0406,1.0397,1.0387,1.0266,1.0319,1.0203,1.0185,1.026,1.0181,1.0179,1.0097,1.0084,1.0057,0.9993,0.9986,0.9986,0.9982,0.998,0.9979,0,0,0,0,0,0,0,1.0581,1.0564,1.041,1.0404,1.0392,1.0362,1.0343,1.0297,1.0189,1.0253,1.0244,1.0226,1.0091,1.0062,1.0052,0.9983,0.9986,0.9981,0.9978,0.9976,0.991,0.9911,0,0,0,0,0,0,1.0602,1.0572,1.0415,1.0405,1.0477,1.0359,1.0338,1.0306,1.0189,1.017,1.0227,1.0221,1.0072,1.0058,1.0045,1.0036,0.998,0.9975,0.9972,0.9909,0.991,0.9912,0,0,0,0,0,0,1.0607,1.059,1.0422,1.0486,1.0462,1.0357,1.0323,1.0304,1.0275,1.017,1.015,1.0218,1.007,1.0053,1.0013,1.0028,0.9973,0.9968,0.9907,0.9909,0.9911,1.0018,0,0,0,0,0,0,1.0614,1.0592,1.0591,1.0487,1.0459,1.0393,1.0324,1.0302,1.0266,1.0256,1.0155,1.0137,1.0068,1.0022,1.0008,1.002,0.9964,0.9905,0.9908,0.991,1.0012,1.0023,1.0033,0,0,0,0,0,1.0622,1.0627,1.0591,1.0573,1.0455,1.0394,1.0378,1.0298,1.0268,1.0265,1.0198,1.014,1.0029,1.0019,1.0002,1.0013,0.9904,0.9907,0.991,1.0008,1.0021,1.0032,0,0,0,0,0,0,1.0736,1.0612,1.0571,1.0543,1.048,1.0374,1.0368,1.0315,1.0259,1.0252,1.0155,1.0133,1.0104,1.0054,1.0045,1.0005,0.9959,0.9959,1.0039,1.0051,1.0061,1.0074,0.9959,0,0,0,0,0,1.0757,1.0719,1.0612,1.0598,1.0568,1.0474,1.0445,1.0388,1.0319,1.0292,1.0221,1.0156,1.0106,1.0076,1.0024,1.0004,0.9981,1.0004,1.0014,1.0023,1.0024,1.001,1.0019,0.9923,0.9923,0.9923,0,0,1.0802,1.073,1.0711,1.0619,1.0564,1.0525,1.0453,1.0415,1.0385,1.0286,1.0244,1.0191,1.0111,1.0082,1.0065,1.0039,1.0045,1.0027,1.0035,1.0031,1.0014,1.0024,1.0032,0.9925,0.9925,0.9924,0,0,1.0864,1.0805,1.0787,1.0733,1.065,1.0588,1.0584,1.0485,1.0446,1.0402,1.0327,1.029,1.0206,1.0153,1.0115,1.0157,1.0102,1.0143,1.0196,1.0183,1.0191,1.0197,1.0213,1.0219,1.0144,1.0145,1.0145,0,1.093,1.0869,1.0784,1.0751,1.0713,1.0621,1.0602,1.0553,1.0458,1.0434,1.0406,1.0299,1.0239,1.0196,1.0206,1.0178,1.017,1.0154,1.0197,1.0202,1.0207,1.022,1.0226,1.015,1.015,1.0149,1.0148,0,1.0954,1.0914,1.0908,1.0819,1.078,1.0754,1.0665,1.0635,1.0583,1.0523,1.048,1.0405,1.0337,1.0322,1.027,1.0272,1.0258,1.0215,1.0167,1.0223,1.0234,1.0238,1.0158,1.0156,1.0154,1.0153,0,0,1.1083,1.0948,1.0947,1.0906,1.0808,1.0774,1.0744,1.0678,1.0654,1.0592,1.0564,1.0495,1.0455,1.0412,1.0353,1.0342,1.038,1.0299,1.0296,1.0318,1.0377,1.0411,1.0418,1.0343,1.0344,1.0344,1.0384,0,1.113,1.1071,1.0994,1.0961,1.0922,1.0835,1.0808,1.0746,1.0689,1.0647,1.0584,1.0537,1.0487,1.0461,1.0446,1.0379,1.0391,1.0375,1.0316,1.0315,1.0339,1.0424,1.0459,1.0501,1.0388,1.0389,1.0389,0,1.1177,1.112,1.1084,1.0989,1.097,1.0948,1.088,1.0842,1.0769,1.0728,1.0681,1.0617,1.058,1.0537,1.0485,1.0476,1.0447,1.0411,1.041,1.0402,1.0356,1.0419,1.0512,1.0519,1.0395,1.0394,1.0394,0,1.1275,1.1189,1.1156,1.1123,1.1012,1.0999,1.0952,1.0877,1.0842,1.0783,1.0759,1.0697,1.0663,1.0616,1.0537,1.0513,1.0494,1.0444,1.0459,1.0462,1.046,1.0461,1.055,1.0441,1.0441,1.0441,1.0441,0,1.1336,1.1317,1.1199,1.1179,1.1155,1.1066,1.1045,1.099,1.0924,1.0891,1.0812,1.0783,1.068,1.0639,1.0577,1.0544,1.0529,1.0495,1.0479,1.0503,1.0507,1.0483,1.0478,1.0442,1.0442,1.0442,1.0441,0,1.1442,1.1361,1.132,1.1219,1.1193,1.118,1.1093,1.107,1.1008,1.0968,1.0954,1.0857,1.0805,1.0722,1.0644,1.0603,1.058,1.0553,1.0606,1.0596,1.0616,1.0616,1.0693,1.0699,1.0587,1.0588,1.0589,0,1.1486,1.147,1.1367,1.134,1.1296,1.1253,1.1217,1.1128,1.1094,1.101,1.0997,1.0938,1.0887,1.0807,1.073,1.067,1.0641,1.0673,1.0632,1.0656,1.0642,1.0645,1.0643,1.0683,1.0684,1.0686,1.0687,0,1.1573,1.1534,1.1486,1.1424,1.1384,1.133,1.1273,1.1255,1.1154,1.1119,1.1065,1.1025,1.0947,1.089,1.082,1.077,1.0712,1.07,1.0701,1.0725,1.0756,1.074,1.0632,1.0699,1.0698,1.0697,1.0696,1.0696,1.1649,1.1631,1.1556,1.1505,1.1453,1.1401,1.1375,1.131,1.1264,1.1193,1.1144,1.1093,1.1019,1.0919,1.0873,1.0832,1.0806,1.0807,1.0807,1.0809,1.0818,1.0763,1.0819,1.0818,1.0818,1.0817,1.0817,0,1.1732,1.168,1.1634,1.1557,1.1517,1.1466,1.1399,1.1369,1.1326,1.1262,1.1214,1.1151,1.1096,1.1014,1.0952,1.0935,1.0907,1.0922,1.0922,1.0912,1.0844,1.085,1.0946,1.0946,1.0946,1.0946,1.0946,1.0946,1.1771,1.1738,1.169,1.163,1.1577,1.1527,1.1494,1.1446,1.1395,1.1329,1.1283,1.123,1.116,1.1092,1.1039,1.1016,1.0997,1.1021,1.099,1.0928,1.0917,1.0905,1.0911,1.1017,1.1018,1.1061,1.1062,1.1062]},{"header":{"parameterUnit":"m.s-1","parameterCategory":1,"la1":30.2991,"la2":30.254,"lo1":-89.0895,"lo2":-89.0444,"dy":0.0017,"dx":0.0017,"nx":28,"ny":28,"refTime":"2024-04-02T03:00:00:Z","depth":0,"parameterNumber":3,"parameterNumberName":"V-component_of_WINDS"},"data":[0,0,0,0,0,0,0,0,0,0,0,0,0,0,0,0,0,0,0,0,0,0,0,0,0,0,0,0,0,0,0,0,0,0,0,0,0,0,0,0,0,0,0,0,0,0,0,0,0,0,0,0,0,0,0,0,0,0,5.5509,5.5509,0,5.5522,5.5522,5.5522,5.5474,5.5473,5.5472,5.547,5.5481,5.5483,5.5484,0,0,0,0,0,0,0,0,0,0,0,0,0,5.5441,5.5443,5.5509,5.5509,5.5509,5.5522,5.5522,5.5522,5.5475,5.5473,5.5471,5.547,5.5481,5.5483,5.5485,0,0,0,0,0,0,0,0,0,0,0,0,0,5.5464,5.5443,5.5509,5.5487,5.5485,5.5521,5.5522,5.5522,5.5475,5.5473,5.5471,5.5469,5.548,5.5483,5.5485,5.5542,0,0,5.5492,5.5493,0,0,0,0,0,0,0,0,5.5463,5.5466,5.549,5.5489,5.5487,5.5494,5.5502,5.5529,5.5475,5.5479,5.547,5.5468,5.5487,5.5489,5.5496,5.5543,5.5543,5.5492,5.5494,5.5495,5.5496,0,0,0,0,0,0,0,5.5461,5.5466,5.5514,5.549,5.5488,5.5476,5.5477,5.5507,5.5495,5.5478,5.5475,5.5477,5.5486,5.5494,5.5496,5.5543,5.5492,5.5495,5.5496,5.5497,5.5638,5.5641,0,0,0,0,0,0,5.5463,5.5465,5.5513,5.5514,5.5469,5.5479,5.548,5.5494,5.5494,5.5492,5.5479,5.5475,5.5491,5.5493,5.5496,5.5564,5.5495,5.5497,5.5499,5.5636,5.5639,5.5641,0,0,0,0,0,0,5.5462,5.5468,5.5513,5.5488,5.5493,5.5482,5.5498,5.5495,5.5503,5.5495,5.5492,5.5489,5.5489,5.5493,5.5531,5.5564,5.5498,5.5501,5.5633,5.5637,5.564,5.57,0,0,0,0,0,0,5.546,5.5467,5.549,5.5489,5.5495,5.5549,5.55,5.5497,5.5508,5.5502,5.5504,5.5502,5.5488,5.5528,5.5534,5.5566,5.5502,5.563,5.5635,5.5639,5.5695,5.5705,5.5714,0,0,0,0,0,5.5458,5.5505,5.5491,5.5497,5.5522,5.5551,5.5554,5.5537,5.551,5.5532,5.5527,5.5502,5.5559,5.5532,5.5538,5.5572,5.5628,5.5634,5.5639,5.5691,5.5703,5.5713,0,0,0,0,0,0,5.5508,5.5505,5.5489,5.5538,5.5545,5.5543,5.557,5.555,5.5564,5.5559,5.5536,5.5537,5.558,5.5579,5.555,5.5627,5.5589,5.5596,5.5627,5.5638,5.5647,5.5647,5.5504,0,0,0,0,0,5.5526,5.555,5.5545,5.5588,5.5593,5.5581,5.5592,5.5579,5.5585,5.5588,5.5585,5.5592,5.5611,5.5624,5.5641,5.5694,5.5694,5.572,5.5729,5.5737,5.5743,5.5772,5.5784,5.5658,5.5658,5.5658,0,0,5.5561,5.5562,5.5578,5.5599,5.5603,5.5628,5.5584,5.5612,5.563,5.5592,5.5629,5.5627,5.5633,5.5679,5.5699,5.568,5.5778,5.5744,5.575,5.5752,5.5779,5.5791,5.5801,5.5662,5.5661,5.5661,0,0,5.5638,5.5641,5.5679,5.5684,5.5691,5.5682,5.5691,5.5692,5.569,5.5727,5.5699,5.5719,5.5753,5.5759,5.5766,5.5846,5.5824,5.5852,5.5901,5.5929,5.5939,5.5948,5.5978,5.5989,5.5858,5.5858,5.5858,0,5.5681,5.5719,5.57,5.5731,5.5741,5.5708,5.5746,5.5751,5.5763,5.577,5.5748,5.5791,5.5792,5.584,5.5859,5.5866,5.5876,5.5853,5.5939,5.5948,5.5956,5.5984,5.5995,5.5862,5.5861,5.5861,5.5861,0,5.5772,5.5798,5.5827,5.5841,5.5854,5.5888,5.5874,5.5889,5.5875,5.5869,5.5907,5.5907,5.5925,5.5934,5.592,5.5981,5.5968,5.5943,5.5904,5.5972,5.5998,5.6008,5.5867,5.5866,5.5865,5.5864,0,0,5.5882,5.5886,5.5897,5.5903,5.5908,5.5928,5.596,5.5978,5.5992,5.6001,5.6028,5.6057,5.6035,5.6043,5.6028,5.6053,5.6118,5.6025,5.6025,5.6043,5.6186,5.6206,5.6219,5.6103,5.6105,5.6106,5.6186,0,5.596,5.6016,5.6001,5.6057,5.6082,5.605,5.6079,5.6085,5.608,5.6099,5.6093,5.6115,5.6082,5.6088,5.611,5.6105,5.6147,5.6099,5.6128,5.6129,5.6129,5.6232,5.6254,5.6329,5.6196,5.6198,5.6199,0,5.6058,5.6072,5.6132,5.6134,5.6143,5.6169,5.6185,5.6203,5.621,5.6204,5.6214,5.6194,5.6226,5.6186,5.6229,5.6198,5.6208,5.6207,5.621,5.6213,5.6169,5.624,5.6353,5.6365,5.6215,5.6213,5.6212,0,5.6135,5.6168,5.6209,5.6215,5.6218,5.6237,5.6239,5.6243,5.6255,5.6267,5.6275,5.6291,5.63,5.6313,5.6299,5.6271,5.6345,5.6303,5.6342,5.6342,5.636,5.6359,5.6477,5.6364,5.6364,5.6364,5.6364,0,5.6224,5.6261,5.6243,5.6268,5.631,5.6291,5.6332,5.633,5.6334,5.6358,5.6331,5.6354,5.6332,5.6353,5.6341,5.638,5.6384,5.6381,5.6377,5.6384,5.6385,5.6392,5.6387,5.6367,5.6366,5.6366,5.6365,0,5.6317,5.6306,5.6348,5.6348,5.6349,5.6379,5.6379,5.6401,5.6394,5.6425,5.6431,5.642,5.6443,5.643,5.6452,5.6445,5.6495,5.6484,5.6494,5.6491,5.6531,5.6528,5.6659,5.6676,5.6551,5.6552,5.6553,0,5.6375,5.6404,5.6407,5.6422,5.6426,5.6449,5.6461,5.6443,5.6457,5.6467,5.6489,5.6509,5.6525,5.6563,5.6557,5.6575,5.6565,5.6609,5.6567,5.6574,5.6567,5.6567,5.657,5.6619,5.662,5.6621,5.6622,0,5.6481,5.6474,5.6493,5.6511,5.6527,5.654,5.6551,5.6564,5.6546,5.6563,5.6586,5.6599,5.6623,5.6644,5.6659,5.666,5.6639,5.6635,5.6645,5.6653,5.6659,5.6658,5.6519,5.6633,5.6632,5.6631,5.663,5.663,5.6559,5.6584,5.659,5.6613,5.6619,5.663,5.6652,5.6648,5.6667,5.6687,5.6674,5.6702,5.6708,5.6726,5.673,5.6752,5.6734,5.6748,5.6752,5.6756,5.6762,5.6654,5.6754,5.6754,5.6753,5.6753,5.6753,0,5.6664,5.6667,5.6688,5.6705,5.6722,5.67,5.6711,5.6727,5.6753,5.676,5.6777,5.6804,5.6825,5.682,5.6839,5.6857,5.6848,5.6863,5.6862,5.6863,5.6777,5.6767,5.687,5.687,5.687,5.687,5.687,5.687,5.6722,5.6762,5.6757,5.68,5.6802,5.683,5.6839,5.6848,5.6854,5.6886,5.6904,5.6901,5.6903,5.6922,5.694,5.6938,5.6947,5.6966,5.6961,5.688,5.6869,5.6858,5.6849,5.6968,5.6968,5.7045,5.7046,5.7047]}]]